RYR88DL LIRP-LFOB

Flight info

Callsign RYR88DL
Flight time 1h 27m
Altitude 36000
Route BEROK DCT BOTAL DCT PUNSA DCT GILIR DCT JAVVU DCT TINIL
Aircraft B38M/M-SDE1FGHILORVWXY/HB1

Departure

Time 2026-04-25 19:45
Airport Pisa International Airport (LIRP)

Arrival

Time 2026-04-25 21:12
Airport Beauvais-Tillé airport (LFOB)
Time Latitude Longitude Altitude Speed Heading
2026-04-25 19:28 43.69763 10.39974 16 ft 0 kts
2026-04-25 19:36 43.69762 10.39973 16 ft 1 kts
2026-04-25 19:37 43.69746 10.39970 17 ft 3 kts 12°
2026-04-25 19:37 43.69727 10.39962 18 ft 3 kts 21°
2026-04-25 19:37 43.69709 10.39950 17 ft 3 kts 38°
2026-04-25 19:37 43.69697 10.39932 17 ft 3 kts 72°
2026-04-25 19:38 43.69696 10.39917 17 ft 0 kts 98°
2026-04-25 19:41 43.69695 10.39921 17 ft 1 kts 98°
2026-04-25 19:41 43.69694 10.39935 19 ft 3 kts 98°
2026-04-25 19:42 43.69688 10.39990 17 ft 6 kts 98°
2026-04-25 19:42 43.69664 10.40040 17 ft 7 kts 149°
2026-04-25 19:42 43.69611 10.40058 17 ft 9 kts 171°
2026-04-25 19:42 43.69547 10.40072 18 ft 10 kts 171°
2026-04-25 19:43 43.69476 10.40088 19 ft 11 kts 169°
2026-04-25 19:43 43.69401 10.40106 20 ft 11 kts 172°
2026-04-25 19:43 43.69347 10.40168 19 ft 12 kts 123°
2026-04-25 19:43 43.69287 10.40284 14 ft 16 kts 126°
2026-04-25 19:44 43.69247 10.40321 13 ft 2 kts 210°
2026-04-25 19:44 43.69201 10.40275 13 ft 30 kts 217°
2026-04-25 19:44 43.68808 10.39868 13 ft 109 kts 217°
2026-04-25 19:44 43.68021 10.39060 46 ft 167 kts 215°
2026-04-25 19:45 43.67034 10.38085 713 ft 173 kts 217°
2026-04-25 19:45 43.66044 10.37094 1556 ft 181 kts 218°
2026-04-25 19:45 43.65024 10.36050 2306 ft 188 kts 220°
2026-04-25 19:45 43.63943 10.34909 2844 ft 206 kts 223°
2026-04-25 19:46 43.63040 10.33323 3489 ft 211 kts 256°
2026-04-25 19:46 43.63090 10.31354 4435 ft 211 kts 292°
2026-04-25 19:46 43.63892 10.29695 5422 ft 213 kts 306°
2026-04-25 19:46 43.64810 10.28040 6178 ft 216 kts 304°
2026-04-25 19:47 43.65728 10.26319 6807 ft 231 kts 304°
2026-04-25 19:47 43.66719 10.24550 7562 ft 237 kts 312°
2026-04-25 19:47 43.68096 10.23442 8534 ft 229 kts 350°
2026-04-25 19:47 43.69683 10.23699 9324 ft 236 kts 23°
2026-04-25 19:48 43.71065 10.24995 10043 ft 242 kts 36°
2026-04-25 19:48 43.72413 10.26415 10749 ft 246 kts 35°
2026-04-25 19:48 43.73777 10.27837 11420 ft 250 kts 34°
2026-04-25 19:48 43.75345 10.29007 11877 ft 265 kts 18°
2026-04-25 19:49 43.77132 10.29922 12256 ft 284 kts 19°
2026-04-25 19:49 43.78384 10.30578 12506 ft 297 kts 19°
2026-04-25 19:49 43.81090 10.31998 12942 ft 324 kts 19°
2026-04-25 19:49 43.83269 10.33141 13243 ft 344 kts 19°
2026-04-25 19:50 43.87927 10.35434 14244 ft 362 kts
2026-04-25 19:50 43.90431 10.35525 14923 ft 362 kts 352°
2026-04-25 19:50 43.92962 10.35175 15560 ft 367 kts 352°
2026-04-25 19:51 43.95513 10.34809 16278 ft 370 kts 351°
2026-04-25 19:51 43.98095 10.34437 16945 ft 375 kts 353°
2026-04-25 19:51 44.00733 10.34527 17557 ft 380 kts 359°
2026-04-25 19:51 44.03352 10.34664 18167 ft 384 kts 358°
2026-04-25 19:52 44.06040 10.34771 18685 ft 388 kts 357°
2026-04-25 19:52 44.08754 10.34865 19277 ft 389 kts 357°
2026-04-25 19:52 44.11473 10.34952 19812 ft 392 kts 357°
2026-04-25 19:52 44.14202 10.34874 20328 ft 390 kts 347°
2026-04-25 19:53 44.16735 10.33795 20901 ft 385 kts 330°
2026-04-25 19:53 44.18983 10.31711 21426 ft 384 kts 319°
2026-04-25 19:53 44.21038 10.29368 21906 ft 388 kts 318°
2026-04-25 19:53 44.23101 10.26920 22435 ft 390 kts 318°
2026-04-25 19:54 44.25158 10.24423 22921 ft 393 kts 317°
2026-04-25 19:54 44.27221 10.21887 23438 ft 396 kts 317°
2026-04-25 19:54 44.29292 10.19318 23871 ft 399 kts 319°
2026-04-25 19:54 44.30672 10.17601 24102 ft 402 kts 319°
2026-04-25 19:55 44.33445 10.14137 24616 ft 405 kts 319°
2026-04-25 19:55 44.35549 10.11506 25011 ft 407 kts 319°
2026-04-25 19:55 44.37667 10.08855 25421 ft 409 kts 318°
2026-04-25 19:55 44.39791 10.06192 25797 ft 412 kts 318°
2026-04-25 19:56 44.41937 10.03501 26189 ft 414 kts 318°
2026-04-25 19:56 44.44090 10.00796 26560 ft 416 kts 318°
2026-04-25 19:56 44.46233 9.98103 26945 ft 418 kts 318°
2026-04-25 19:56 44.48401 9.95374 27317 ft 420 kts 318°
2026-04-25 19:57 44.50585 9.92623 27683 ft 422 kts 318°
2026-04-25 19:57 44.52755 9.89886 28033 ft 424 kts 318°
2026-04-25 19:57 44.54959 9.87104 28385 ft 427 kts 318°
2026-04-25 19:57 44.57172 9.84307 28730 ft 429 kts 318°
2026-04-25 19:58 44.59390 9.81503 29128 ft 429 kts 318°
2026-04-25 19:58 44.61609 9.78691 29476 ft 431 kts 318°
2026-04-25 19:58 44.63845 9.75857 29795 ft 433 kts 317°
2026-04-25 19:58 44.66064 9.73040 30114 ft 435 kts 317°
2026-04-25 19:59 44.68321 9.70173 30370 ft 437 kts 317°
2026-04-25 19:59 44.70580 9.67299 30635 ft 439 kts 317°
2026-04-25 19:59 44.72825 9.64441 30912 ft 440 kts 317°
2026-04-25 19:59 44.75089 9.61554 31268 ft 439 kts 317°
2026-04-25 20:00 44.77356 9.58661 31643 ft 438 kts 317°
2026-04-25 20:00 44.78120 9.57685 31759 ft 438 kts 317°
2026-04-25 20:00 44.81866 9.52897 32455 ft 435 kts 317°
2026-04-25 20:00 44.84105 9.50029 32775 ft 435 kts 317°
2026-04-25 20:01 44.88556 9.44322 33464 ft 433 kts 317°
2026-04-25 20:01 44.90793 9.41447 33821 ft 433 kts 317°
2026-04-25 20:01 44.93021 9.38582 34152 ft 432 kts 317°
2026-04-25 20:02 44.95217 9.35755 34432 ft 431 kts 316°
2026-04-25 20:02 44.97437 9.32894 34716 ft 431 kts 316°
2026-04-25 20:02 44.99654 9.30034 34971 ft 431 kts 316°
2026-04-25 20:02 45.01871 9.27169 35236 ft 431 kts 316°
2026-04-25 20:03 45.04075 9.24320 35560 ft 429 kts 316°
2026-04-25 20:03 45.06250 9.21506 35793 ft 429 kts 316°
2026-04-25 20:03 45.08459 9.18644 35968 ft 430 kts 316°
2026-04-25 20:03 45.10669 9.15779 36035 ft 430 kts 316°
2026-04-25 20:04 45.15216 9.10296 36031 ft 429 kts 320°
2026-04-25 20:04 45.19891 9.05023 36021 ft 429 kts 320°
2026-04-25 20:05 45.24514 8.99750 36027 ft 428 kts 320°
2026-04-25 20:05 45.29149 8.94446 36021 ft 427 kts 320°
2026-04-25 20:06 45.33784 8.89131 36015 ft 428 kts 320°
2026-04-25 20:06 45.38435 8.83787 36020 ft 429 kts 320°
2026-04-25 20:07 45.43053 8.78467 36020 ft 429 kts 320°
2026-04-25 20:07 45.47700 8.73103 36046 ft 428 kts 320°
2026-04-25 20:08 45.52340 8.67736 36048 ft 428 kts 320°
2026-04-25 20:08 45.56934 8.62410 36047 ft 428 kts 320°
2026-04-25 20:09 45.61568 8.57026 36044 ft 429 kts 320°
2026-04-25 20:09 45.66208 8.51623 36050 ft 430 kts 320°
2026-04-25 20:10 45.70836 8.46223 36023 ft 428 kts 320°
2026-04-25 20:10 45.75432 8.40847 36026 ft 429 kts 320°
2026-04-25 20:11 45.80053 8.35431 36046 ft 428 kts 320°
2026-04-25 20:11 45.84682 8.29993 36052 ft 428 kts 320°
2026-04-25 20:12 45.89271 8.24590 36060 ft 429 kts 320°
2026-04-25 20:12 45.92368 8.20936 36102 ft 429 kts 320°
2026-04-25 20:13 45.98492 8.13697 36079 ft 430 kts 320°
2026-04-25 20:13 46.03106 8.08232 36140 ft 428 kts 319°
2026-04-25 20:14 46.07700 8.02703 36103 ft 428 kts 314°
2026-04-25 20:14 46.11493 7.96175 36080 ft 427 kts 309°
2026-04-25 20:15 46.15289 7.89499 36128 ft 430 kts 309°
2026-04-25 20:15 46.19048 7.82857 36132 ft 429 kts 308°
2026-04-25 20:16 46.22825 7.76166 36140 ft 429 kts 308°
2026-04-25 20:16 46.26598 7.69464 36102 ft 429 kts 308°
2026-04-25 20:17 46.30368 7.62751 36138 ft 430 kts 308°
2026-04-25 20:17 46.34140 7.56020 36138 ft 429 kts 308°
2026-04-25 20:18 46.37904 7.49286 36113 ft 429 kts 308°
2026-04-25 20:18 46.41643 7.42580 36120 ft 429 kts 308°
2026-04-25 20:19 46.44760 7.36978 36136 ft 429 kts 308°
2026-04-25 20:19 46.49119 7.29123 36129 ft 430 kts 308°
2026-04-25 20:20 46.52254 7.23461 36122 ft 430 kts 308°
2026-04-25 20:20 46.56011 7.16663 36102 ft 431 kts 308°
2026-04-25 20:21 46.59736 7.09902 36127 ft 431 kts 308°
2026-04-25 20:21 46.63476 7.03098 36128 ft 430 kts 308°
2026-04-25 20:22 46.66588 6.97424 36127 ft 430 kts 308°
2026-04-25 20:22 46.70955 6.89443 36122 ft 431 kts 307°
2026-04-25 20:23 46.74683 6.82611 36127 ft 432 kts 307°
2026-04-25 20:23 46.78429 6.75728 36135 ft 432 kts 307°
2026-04-25 20:24 46.82163 6.68852 36132 ft 432 kts 307°
2026-04-25 20:24 46.85869 6.62008 36119 ft 432 kts 307°
2026-04-25 20:25 46.89596 6.55111 35892 ft 432 kts 307°
2026-04-25 20:25 46.91460 6.51654 35694 ft 433 kts 307°
2026-04-25 20:25 46.93326 6.48191 35514 ft 433 kts 307°
2026-04-25 20:26 46.95191 6.44722 35316 ft 434 kts 307°
2026-04-25 20:26 46.97064 6.41236 35092 ft 434 kts 307°
2026-04-25 20:26 46.98930 6.37760 34862 ft 435 kts 307°
2026-04-25 20:26 47.00800 6.34274 34639 ft 435 kts 307°
2026-04-25 20:27 47.02668 6.30786 34416 ft 435 kts 307°
2026-04-25 20:27 47.04538 6.27290 34200 ft 435 kts 307°
2026-04-25 20:27 47.08529 6.20652 34125 ft 438 kts 313°
2026-04-25 20:28 47.12783 6.14217 34130 ft 438 kts 313°
2026-04-25 20:28 47.17040 6.07792 34128 ft 438 kts 313°
2026-04-25 20:29 47.21285 6.01370 34126 ft 438 kts 313°
2026-04-25 20:29 47.25501 5.94978 34129 ft 437 kts 313°
2026-04-25 20:30 47.29740 5.88536 34126 ft 436 kts 312°
2026-04-25 20:30 47.33657 5.81810 34115 ft 432 kts 297°
2026-04-25 20:31 47.36484 5.73942 34121 ft 434 kts 297°
2026-04-25 20:31 47.39300 5.66041 34128 ft 434 kts 296°
2026-04-25 20:32 47.42093 5.58110 34132 ft 435 kts 296°
2026-04-25 20:32 47.44870 5.50194 34133 ft 435 kts 296°
2026-04-25 20:33 47.47648 5.42252 33800 ft 430 kts 296°
2026-04-25 20:33 47.49009 5.38351 32889 ft 434 kts 296°
2026-04-25 20:33 47.49945 5.35666 32218 ft 437 kts 296°
2026-04-25 20:34 47.51806 5.30320 30938 ft 443 kts 296°
2026-04-25 20:34 47.53223 5.26239 29990 ft 447 kts 297°
2026-04-25 20:34 47.54636 5.22165 29317 ft 442 kts 297°
2026-04-25 20:34 47.56026 5.18149 28857 ft 434 kts 296°
2026-04-25 20:35 47.57392 5.14201 28319 ft 428 kts 296°
2026-04-25 20:35 47.58889 5.10481 28215 ft 417 kts 308°
2026-04-25 20:35 47.63177 5.04590 28165 ft 420 kts 317°
2026-04-25 20:36 47.67595 4.98965 28157 ft 420 kts 318°
2026-04-25 20:36 47.71942 4.93486 28158 ft 421 kts 318°
2026-04-25 20:37 47.74144 4.90711 27784 ft 418 kts 318°
2026-04-25 20:37 47.76387 4.87883 26877 ft 423 kts 318°
2026-04-25 20:37 47.78647 4.85030 26005 ft 425 kts 318°
2026-04-25 20:37 47.80878 4.82209 25192 ft 417 kts 318°
2026-04-25 20:38 47.83068 4.79438 24419 ft 409 kts 317°
2026-04-25 20:38 47.85221 4.76711 23657 ft 402 kts 317°
2026-04-25 20:38 47.87310 4.74062 22805 ft 396 kts 318°
2026-04-25 20:38 47.89392 4.71420 21987 ft 389 kts 318°
2026-04-25 20:39 47.91433 4.68825 21210 ft 383 kts 318°
2026-04-25 20:39 47.93452 4.66256 20453 ft 377 kts 319°
2026-04-25 20:39 47.95427 4.63740 19741 ft 371 kts 319°
2026-04-25 20:39 47.96715 4.62098 19422 ft 366 kts 319°
2026-04-25 20:40 47.99321 4.58772 18828 ft 366 kts 319°
2026-04-25 20:40 48.01228 4.56336 18426 ft 365 kts 319°
2026-04-25 20:40 48.03156 4.53870 17986 ft 362 kts 319°
2026-04-25 20:40 48.05068 4.51422 17569 ft 360 kts 319°
2026-04-25 20:41 48.06973 4.48979 17164 ft 358 kts 319°
2026-04-25 20:41 48.08843 4.46580 16777 ft 357 kts 319°
2026-04-25 20:41 48.10725 4.44164 16387 ft 355 kts 319°
2026-04-25 20:41 48.12596 4.41761 16007 ft 353 kts 319°
2026-04-25 20:42 48.14634 4.39725 15554 ft 352 kts 332°
2026-04-25 20:42 48.16790 4.38020 15188 ft 348 kts 331°
2026-04-25 20:42 48.18925 4.36313 14822 ft 345 kts 331°
2026-04-25 20:42 48.21033 4.34631 14454 ft 342 kts 331°
2026-04-25 20:43 48.23107 4.32977 14093 ft 339 kts 331°
2026-04-25 20:43 48.25182 4.31321 13693 ft 336 kts 331°
2026-04-25 20:43 48.27238 4.29679 13300 ft 333 kts 332°
2026-04-25 20:43 48.29268 4.28056 12933 ft 329 kts 332°
2026-04-25 20:44 48.31290 4.26438 12573 ft 325 kts 332°
2026-04-25 20:44 48.33281 4.24843 12250 ft 321 kts 331°
2026-04-25 20:44 48.35227 4.23252 11971 ft 315 kts 331°
2026-04-25 20:44 48.37132 4.21689 11753 ft 308 kts 331°
2026-04-25 20:45 48.38979 4.20176 11548 ft 301 kts 331°
2026-04-25 20:45 48.40798 4.18683 11333 ft 295 kts 331°
2026-04-25 20:45 48.42585 4.17216 11124 ft 288 kts 331°
2026-04-25 20:45 48.44336 4.15778 10920 ft 286 kts 331°
2026-04-25 20:46 48.46089 4.14336 10720 ft 286 kts 331°
2026-04-25 20:46 48.47836 4.12899 10519 ft 284 kts 331°
2026-04-25 20:46 48.49533 4.11502 10314 ft 279 kts 331°
2026-04-25 20:46 48.51222 4.10111 10113 ft 273 kts 331°
2026-04-25 20:47 48.52885 4.08739 9905 ft 272 kts 331°
2026-04-25 20:47 48.54546 4.07368 9700 ft 272 kts 332°
2026-04-25 20:47 48.56206 4.05996 9494 ft 271 kts 331°
2026-04-25 20:47 48.57856 4.04630 9268 ft 270 kts 332°
2026-04-25 20:48 48.59498 4.03269 9080 ft 269 kts 331°
2026-04-25 20:48 48.61141 4.01907 8896 ft 268 kts 331°
2026-04-25 20:48 48.62753 4.00569 8705 ft 267 kts 331°
2026-04-25 20:48 48.64379 3.99218 8519 ft 267 kts 331°
2026-04-25 20:49 48.66011 3.97863 8326 ft 266 kts 331°
2026-04-25 20:49 48.67631 3.96514 8131 ft 265 kts 331°
2026-04-25 20:49 48.69246 3.95170 7952 ft 264 kts 332°
2026-04-25 20:49 48.70854 3.93830 7752 ft 263 kts 332°
2026-04-25 20:50 48.72431 3.92518 7636 ft 261 kts 331°
2026-04-25 20:50 48.74031 3.91185 7619 ft 263 kts 331°
2026-04-25 20:50 48.75640 3.89843 7597 ft 263 kts 331°
2026-04-25 20:50 48.77250 3.88500 7569 ft 264 kts 331°
2026-04-25 20:51 48.78860 3.87162 7529 ft 263 kts 333°
2026-04-25 20:51 48.80515 3.86060 7499 ft 262 kts 338°
2026-04-25 20:51 48.82190 3.84985 7446 ft 258 kts 337°
2026-04-25 20:51 48.83823 3.83925 7239 ft 255 kts 337°
2026-04-25 20:52 48.85465 3.82848 7179 ft 260 kts 337°
2026-04-25 20:52 48.86578 3.82116 7189 ft 264 kts 337°
2026-04-25 20:52 48.88852 3.80613 7184 ft 267 kts 337°
2026-04-25 20:52 48.90538 3.79496 7192 ft 267 kts 337°
2026-04-25 20:53 48.92241 3.78367 7180 ft 267 kts 336°
2026-04-25 20:53 48.93950 3.77233 7189 ft 267 kts 336°
2026-04-25 20:53 48.95661 3.76095 7182 ft 268 kts 336°
2026-04-25 20:53 48.97369 3.74959 7187 ft 268 kts 336°
2026-04-25 20:54 48.99078 3.73821 7185 ft 267 kts 336°
2026-04-25 20:54 49.00760 3.72701 7189 ft 267 kts 336°
2026-04-25 20:54 49.02465 3.71565 7199 ft 267 kts 336°
2026-04-25 20:54 49.04168 3.70429 7192 ft 267 kts 336°
2026-04-25 20:55 49.05872 3.69291 7197 ft 267 kts 336°
2026-04-25 20:55 49.07584 3.68148 7196 ft 267 kts 336°
2026-04-25 20:55 49.09263 3.67016 7188 ft 267 kts 334°
2026-04-25 20:55 49.10742 3.65333 7176 ft 266 kts 311°
2026-04-25 20:56 49.11734 3.62942 7204 ft 268 kts 300°
2026-04-25 20:56 49.12665 3.60459 7192 ft 269 kts 301°
2026-04-25 20:56 49.13609 3.57987 7195 ft 269 kts 301°
2026-04-25 20:56 49.14557 3.55523 7198 ft 269 kts 302°
2026-04-25 20:57 49.15499 3.53088 7184 ft 269 kts 301°
2026-04-25 20:57 49.16455 3.50625 7189 ft 269 kts 301°
2026-04-25 20:57 49.17411 3.48162 7193 ft 269 kts 301°
2026-04-25 20:57 49.18371 3.45687 7188 ft 269 kts 301°
2026-04-25 20:58 49.19331 3.43217 7190 ft 269 kts 302°
2026-04-25 20:58 49.20290 3.40762 7190 ft 269 kts 302°
2026-04-25 20:58 49.21262 3.38310 7193 ft 269 kts 302°
2026-04-25 20:58 49.22225 3.35878 7197 ft 269 kts 302°
2026-04-25 20:59 49.23180 3.33411 7195 ft 269 kts 301°
2026-04-25 20:59 49.24115 3.30920 7194 ft 270 kts 299°
2026-04-25 20:59 49.24732 3.28213 7044 ft 270 kts 279°
2026-04-25 20:59 49.24941 3.25360 7014 ft 270 kts 278°
2026-04-25 21:00 49.25186 3.22502 6993 ft 270 kts 278°
2026-04-25 21:00 49.25266 3.21582 6988 ft 270 kts 279°
2026-04-25 21:00 49.25945 3.13990 6982 ft 270 kts 279°
2026-04-25 21:01 49.26202 3.11135 6978 ft 271 kts 279°
2026-04-25 21:01 49.26461 3.08268 6970 ft 271 kts 279°
2026-04-25 21:01 49.26718 3.05414 6971 ft 271 kts 279°
2026-04-25 21:01 49.26973 3.02560 6980 ft 271 kts 279°
2026-04-25 21:02 49.27230 2.99695 6973 ft 271 kts 279°
2026-04-25 21:02 49.27399 2.97803 6972 ft 271 kts 279°
2026-04-25 21:02 49.27738 2.94006 6974 ft 271 kts 279°
2026-04-25 21:02 49.27906 2.92109 6982 ft 271 kts 279°
2026-04-25 21:03 49.28159 2.89247 6978 ft 271 kts 279°
2026-04-25 21:03 49.28412 2.86385 6978 ft 271 kts 279°
2026-04-25 21:03 49.28664 2.83526 6980 ft 271 kts 279°
2026-04-25 21:03 49.28915 2.80663 6978 ft 271 kts 279°
2026-04-25 21:04 49.29166 2.77805 6969 ft 271 kts 279°
2026-04-25 21:04 49.29415 2.74947 6968 ft 271 kts 279°
2026-04-25 21:04 49.29666 2.72075 6776 ft 273 kts 279°
2026-04-25 21:04 49.29920 2.69152 6299 ft 279 kts 279°
2026-04-25 21:05 49.30177 2.66182 5864 ft 282 kts 278°
2026-04-25 21:05 49.30434 2.63201 5511 ft 282 kts 278°
2026-04-25 21:05 49.30690 2.60234 5205 ft 279 kts 278°
2026-04-25 21:05 49.30935 2.57377 4893 ft 268 kts 278°
2026-04-25 21:06 49.31171 2.54600 4598 ft 258 kts 279°
2026-04-25 21:06 49.31398 2.51942 4380 ft 242 kts 279°
2026-04-25 21:06 49.31610 2.49442 4223 ft 229 kts 279°
2026-04-25 21:06 49.31746 2.47850 4138 ft 215 kts 279°
2026-04-25 21:07 49.31983 2.45044 4020 ft 192 kts 279°
2026-04-25 21:07 49.32179 2.43019 3935 ft 191 kts 285°
2026-04-25 21:07 49.32623 2.41121 3829 ft 189 kts 298°
2026-04-25 21:07 49.33264 2.39368 3712 ft 188 kts 304°
2026-04-25 21:08 49.33967 2.37671 3583 ft 188 kts 304°
2026-04-25 21:08 49.34661 2.35971 3468 ft 188 kts 305°
2026-04-25 21:08 49.35369 2.34287 3317 ft 187 kts 306°
2026-04-25 21:08 49.36085 2.32619 3132 ft 187 kts 306°
2026-04-25 21:09 49.37538 2.29309 2830 ft 187 kts 308°
2026-04-25 21:09 49.38238 2.27728 2507 ft 170 kts 308°
2026-04-25 21:09 49.38888 2.26244 2261 ft 167 kts 309°
2026-04-25 21:10 49.39542 2.24804 2088 ft 162 kts 309°
2026-04-25 21:10 49.40179 2.23389 1913 ft 162 kts 309°
2026-04-25 21:10 49.40816 2.21935 1720 ft 166 kts 307°
2026-04-25 21:10 49.41445 2.20451 1507 ft 166 kts 307°
2026-04-25 21:11 49.42086 2.18976 1276 ft 166 kts 307°
2026-04-25 21:11 49.42727 2.17525 1055 ft 162 kts 306°
2026-04-25 21:11 49.43344 2.16105 833 ft 159 kts 306°
2026-04-25 21:11 49.43950 2.14704 592 ft 155 kts 306°
2026-04-25 21:12 49.44531 2.13377 385 ft 149 kts 306°
2026-04-25 21:12 49.45055 2.12176 334 ft 104 kts 304°
2026-04-25 21:12 49.45324 2.11559 340 ft 38 kts 302°
2026-04-25 21:12 49.45388 2.11406 339 ft 23 kts 303°
2026-04-25 21:13 49.45520 2.11104 357 ft 31 kts 304°
2026-04-25 21:13 49.45613 2.10893 353 ft 17 kts 315°
2026-04-25 21:13 49.45714 2.10929 356 ft 16 kts 28°
2026-04-25 21:13 49.45780 2.10982 352 ft 10 kts 28°
2026-04-25 21:14 49.45830 2.11028 352 ft 6 kts 45°
2026-04-25 21:14 49.45848 2.11067 351 ft 3 kts 55°
2026-04-25 21:14 49.45851 2.11074 351 ft 0 kts 56°